Terminal Aerodrome Forecast
Issued by NWS

Home | Current Version | Previous Version | Text Only | Print | Product List | Glossary On
Versions: 1 2 3 4 5 6 7 8 9 10 11 12 13 14 15 16 17 18 19 20 21 22 23 24 25 26 27 28 29 30 31
244
FTUS41 KOKX 281536 AAB
TAFSWF
TAF AMD
KSWF 281536Z 2816/2918 VRB03KT P6SM SCT050 BKN250
     FM281800 24006KT P6SM SCT070 SCT250
     FM282000 23008KT P6SM BKN070
     FM290000 VRB04KT P6SM BKN070
     FM290200 VRB03KT P6SM VCSH SCT070 BKN150
     FM290500 VRB03KT 6SM HZ VCSH SCT070 BKN100
     FM290700 VRB03KT 5SM -SHRA OVC050
     FM290900 06006KT 4SM SHRA BKN040
     FM291100 09006KT 2SM SHRA BKN015
     FM291400 VRB06KT 1SM +SHRA OVC007
      AMD NOT SKED=

USA.gov is the U.S. government's official web portal to all federal, state and local government web resources and services.